Terminal Aerodrome Forecast
Issued by NWS Memphis, TN

Home | Current Version | Previous Version | Text Only | Print | Product List | Glossary On
Versions: 1 2 3 4 5 6 7 8 9 10 11 12 13 14
000
FTUS44 KMEG 232300
TAFMKL
TAF
KMKL 232340Z 2400/2424 11003KT P6SM SKC
     FM241400 18007KT P6SM SCT050 SCT250
     FM241700 17010KT P6SM SCT050 SCT150
     FM241900 19012G20KT P6SM BKN040 BKN150
     FM242300 19012G20KT P6SM VCTS BKN040CB BKN150=

USA.gov is the U.S. government's official web portal to all federal, state and local government web resources and services.